Theta_e
320 320 321 321 322 322 322 322 323 323 323 323 324 324 324 324 324 324 324 324 324 325 325 325 326 326 326 326 327 327 326 322 323 317 314 316 327 337 335 336 333 334 330 316 315 311 309 309 308 311 311 313 314 310 318 315 314 312 302 298 294 295 295 299 296 298 299 296 297 300 301 300 298 303 305 304 303 302 303 302 305 306 306 308 308 309 313 314
319 320 320 321 321 322 322 322 322 323 323 323 323 324 324 323 324 324 324 324 324 324 324 325 326 326 326 326 326 326 323 325 316 314 313 327 336 335 338 337 336 331 327 315 311 309 308 307 308 309 308 306 321 309 313 312 314 305 300 298 294 297 299 302 301 301 299 299 301 300 301 301 300 301 304 300 299 300 300 301 303 303 304 307 308 309 311 312
319 319 319 320 320 321 321 321 322 322 322 323 323 323 323 323 323 323 323 323 323 324 324 325 326 326 326 326 325 325 324 325 319 314 320 331 338 337 339 334 332 331 318 313 312 311 309 308 309 308 307 303 309 305 312 307 309 304 300 294 296 300 301 302 302 302 303 302 301 300 301 300 301 301 304 300 299 300 299 299 300 300 301 304 305 307 310 310
319 319 319 319 320 320 321 321 322 322 322 322 322 323 323 323 323 323 323 323 323 323 324 324 325 325 325 325 326 322 324 325 313 314 322 339 338 336 340 334 333 329 320 315 314 312 311 311 308 309 308 303 305 309 305 308 304 304 300 296 298 300 298 300 302 302 303 302 301 300 300 299 300 301 303 300 298 299 300 302 301 301 302 302 304 305 307 308
319 319 319 319 319 320 320 320 321 322 321 322 322 322 322 322 323 323 323 322 322 323 323 324 324 325 325 325 323 325 323 307 306 319 330 337 340 341 338 336 333 322 317 315 313 311 310 308 306 308 307 299 304 302 302 305 306 306 299 301 302 301 298 302 302 303 302 303 302 300 299 299 302 302 301 300 297 296 299 303 304 304 304 304 304 304 305 304
319 319 319 319 319 320 320 320 321 321 321 321 322 322 322 322 322 322 322 322 322 322 323 324 324 324 324 324 323 326 316 292 314 326 332 336 339 340 337 335 332 320 315 313 310 310 308 306 305 304 300 300 299 297 300 304 307 298 301 302 302 302 300 302 302 303 301 302 300 300 301 302 300 299 301 301 300 302 305 306 306 306 307 307 307 305 305 304
319 319 318 318 319 319 320 320 320 321 321 321 321 321 322 322 321 322 322 321 322 322 322 323 323 324 324 324 323 319 310 306 311 335 334 337 339 337 336 334 330 322 315 310 309 308 307 305 304 301 301 300 300 300 302 302 303 300 298 301 302 303 300 302 301 301 302 302 301 302 303 300 300 296 301 300 302 304 305 306 306 307 307 307 306 306 305 304
319 318 318 318 318 318 319 320 320 320 321 321 321 321 322 322 322 321 321 322 321 322 322 322 323 323 323 320 323 314 309 306 315 328 333 336 335 333 330 325 318 319 312 308 308 306 307 304 302 305 300 298 300 300 302 300 301 298 298 302 303 302 302 302 300 300 301 302 302 301 300 300 301 300 301 300 302 304 305 306 305 305 305 306 305 304 304 304
318 319 319 320 318 318 319 320 320 320 321 321 321 321 322 322 321 321 321 321 322 321 322 322 321 323 323 320 313 305 303 323 323 334 334 333 327 325 321 315 315 311 310 309 309 308 310 304 304 305 298 299 302 300 301 299 296 300 299 300 300 300 302 302 301 301 301 301 301 300 299 301 301 302 299 301 303 304 305 305 305 305 304 304 304 304 303 303
319 319 320 320 319 318 319 319 320 321 321 321 321 322 322 322 321 321 321 322 321 321 321 322 322 322 319 318 314 301 317 315 331 331 332 329 324 321 318 318 312 311 309 309 309 308 306 306 305 308 308 301 303 300 301 299 297 301 299 300 299 300 299 301 299 300 301 300 300 299 299 300 301 300 295 301 303 303 302 302 303 303 302 302 302 303 303 303
319 319 319 319 319 319 319 319 320 321 321 321 322 322 322 321 321 321 321 321 321 321 321 321 323 320 316 315 306 303 318 319 324 329 328 326 321 317 315 315 313 312 310 311 309 310 309 308 311 309 306 300 301 299 300 300 301 300 299 298 299 299 300 300 300 300 300 299 300 299 298 299 300 300 297 300 303 303 302 302 302 302 302 302 302 303 303 303
319 320 319 319 319 319 320 320 320 321 321 322 322 322 322 321 321 321 321 321 320 321 321 321 322 319 317 311 305 309 317 322 328 324 323 321 318 319 318 316 315 317 312 309 312 317 316 314 312 306 297 304 297 300 299 298 301 299 297 294 296 298 297 299 298 300 300 299 300 300 296 295 296 295 300 302 303 302 302 302 302 302 302 302 302 302 302 302
319 319 319 320 320 320 321 320 321 321 322 322 322 322 322 321 320 320 320 320 321 321 320 321 321 320 319 304 308 321 319 321 324 322 322 321 317 316 317 319 317 313 313 311 310 311 313 312 310 303 305 302 300 296 300 300 299 299 298 295 294 295 294 299 301 301 299 299 300 298 286 290 295 299 301 303 302 302 301 299 299 301 302 302 303 303 302 302
320 319 319 320 320 321 321 321 322 322 322 322 322 322 321 321 321 321 320 319 321 320 320 322 321 319 315 302 314 312 317 320 319 319 320 319 315 319 315 318 319 314 318 312 313 310 315 308 313 305 307 302 299 307 300 299 300 294 297 296 291 290 290 299 300 297 297 298 299 298 288 290 296 299 302 304 301 301 298 298 300 302 302 302 302 302 302 303
320 320 319 320 321 320 320 321 322 322 322 322 322 322 321 321 320 320 320 321 320 321 321 321 320 317 303 303 311 316 321 317 312 316 319 314 314 312 313 314 315 315 311 310 314 312 310 315 311 302 299 304 303 299 295 295 295 295 291 288 292 289 291 298 302 297 295 295 298 295 288 290 295 298 301 302 302 302 300 301 301 302 302 302 302 301 301 301
320 319 320 320 321 321 321 321 321 322 322 322 322 321 321 320 319 319 319 320 317 320 320 318 316 318 304 299 308 321 320 310 309 317 314 322 318 313 312 312 312 310 311 307 315 311 309 312 301 301 300 302 297 293 292 291 292 294 291 290 290 291 293 295 300 298 299 295 296 295 290 293 294 298 301 302 301 301 299 300 301 301 302 302 301 301 299 301
320 319 320 320 321 321 321 321 321 321 321 321 321 321 321 317 318 319 320 320 320 319 320 314 312 310 298 309 308 307 308 313 311 317 313 314 315 313 309 308 306 306 309 309 309 310 306 303 305 301 303 296 296 296 288 287 288 290 293 290 293 292 293 291 298 300 297 296 292 294 292 292 295 296 299 300 300 299 299 299 300 301 301 301 300 300 299 301
320 320 320 321 321 321 321 320 321 321 321 321 320 322 319 319 320 319 317 318 323 319 319 321 314 310 302 307 302 305 309 308 315 313 314 312 311 311 308 305 306 305 304 303 308 301 303 298 300 294 296 295 295 292 287 284 289 290 291 291 292 294 294 293 293 297 296 295 294 292 292 292 294 296 298 300 301 300 300 300 300 300 300 301 300 300 300 302
321 321 320 320 321 321 320 320 321 322 322 322 323 321 320 319 320 320 318 316 313 310 303 303 304 296 298 306 310 306 313 313 314 311 306 309 313 311 311 309 308 302 300 298 298 299 301 300 301 294 290 292 293 293 291 292 295 293 294 292 292 291 292 292 296 300 299 296 295 295 294 295 296 297 299 300 301 300 300 300 300 300 300 301 300 301 301 303
320 320 320 320 320 320 320 321 322 322 322 320 322 320 317 316 314 309 310 311 305 306 308 311 308 308 310 312 311 308 314 313 306 309 310 311 308 306 305 305 308 303 299 295 298 297 301 292 290 289 292 295 297 297 297 297 296 296 295 293 292 292 293 296 297 299 299 296 294 295 295 294 295 296 298 300 300 299 298 298 299 299 300 299 299 301 303 304
319 319 319 320 320 320 321 322 322 322 321 321 320 317 309 307 304 304 305 308 313 314 312 313 313 312 311 314 312 305 306 305 306 307 309 312 308 305 301 302 299 296 297 299 299 301 299 291 292 295 297 297 298 299 299 298 297 295 293 292 292 292 291 295 296 298 299 295 292 294 294 294 295 297 298 299 298 297 297 298 298 299 299 300 301 301 302 303
320 320 320 320 320 321 322 322 321 321 321 322 321 312 311 307 310 311 308 302 311 313 313 313 315 312 316 315 315 312 310 306 304 306 311 311 304 301 301 300 297 295 299 299 298 293 292 290 294 298 300 300 299 299 298 297 295 295 292 291 290 291 294 296 297 298 297 295 290 292 291 292 295 297 298 298 298 299 299 299 299 299 299 301 302 301 301 301
320 320 320 321 321 321 322 322 321 321 322 318 316 314 310 312 316 315 311 304 301 309 308 309 308 310 311 315 308 310 304 303 303 305 304 307 302 301 303 298 297 297 299 299 293 293 289 293 297 300 300 298 297 298 297 296 296 292 291 288 288 292 290 288 294 296 296 293 291 293 292 293 296 297 298 299 299 299 300 301 301 302 302 302 301 301 300 299
320 320 320 320 321 321 322 321 321 323 321 318 314 312 315 316 316 313 307 300 301 306 309 312 309 308 306 306 307 307 304 305 305 305 307 305 300 303 301 300 297 297 296 298 296 294 293 298 302 300 299 298 295 296 295 293 292 294 294 291 291 291 292 292 292 295 296 296 296 292 291 290 293 293 295 298 299 299 300 300 300 302 304 302 301 301 300 298
320 319 320 320 320 321 320 320 320 320 317 318 313 315 315 316 313 314 305 300 301 301 311 312 313 312 307 314 314 304 306 305 307 305 305 305 304 301 300 304 300 295 297 299 298 296 295 300 301 299 298 297 296 293 294 294 290 291 294 294 294 294 293 294 294 292 289 288 293 291 282 284 291 293 294 296 295 295 297 298 299 300 300 299 299 299 299 299
319 319 319 319 320 320 321 318 319 321 320 315 314 316 317 315 316 313 304 295 291 303 305 300 312 301 311 303 310 307 305 299 301 306 307 307 305 302 302 299 301 295 298 299 298 297 297 299 300 298 297 296 296 294 295 297 290 288 290 296 298 295 294 293 292 290 283 281 291 293 281 280 289 291 294 296 294 295 297 297 296 297 298 298 298 298 297 297
317 317 319 319 320 321 318 315 318 320 316 312 317 316 316 314 318 311 300 294 290 305 301 300 304 304 308 303 305 307 292 296 302 303 304 307 302 306 297 297 299 299 299 300 294 291 298 297 295 296 296 295 293 291 295 295 291 287 295 296 296 294 292 292 292 290 287 290 292 292 289 282 282 288 295 296 295 296 294 295 295 296 297 297 296 296 295 295
315 315 317 318 320 320 319 318 320 318 313 314 316 316 316 315 311 309 298 284 285 306 300 299 304 307 307 301 306 299 295 298 296 299 302 304 303 301 298 297 297 296 298 296 285 297 296 295 295 294 293 291 291 294 299 298 292 291 295 295 293 293 292 291 289 287 286 284 282 287 290 282 281 289 294 294 292 292 292 293 294 295 296 295 295 295 294 294
313 314 316 318 319 320 321 319 317 316 314 314 315 313 313 314 307 301 292 282 300 302 309 297 309 304 302 302 299 298 296 298 293 298 306 304 306 300 294 298 297 296 297 296 291 296 297 296 297 297 293 290 295 295 298 298 293 296 295 295 295 294 293 291 285 285 284 282 279 285 289 281 282 290 290 292 291 291 291 292 293 294 294 294 293 293 293 293
311 312 314 318 320 319 318 319 317 316 314 314 313 313 312 307 306 293 287 280 302 293 303 300 299 297 299 296 295 298 295 296 298 299 301 299 300 302 300 299 296 295 294 296 295 295 296 296 298 295 294 297 293 293 296 297 295 296 296 294 292 291 289 288 287 285 282 278 281 287 290 287 278 287 287 290 292 292 292 292 293 293 293 292 292 292 292 292
309 310 311 314 317 318 318 314 316 313 314 313 312 311 310 308 295 287 281 292 299 300 302 300 296 300 295 294 294 296 297 296 296 297 294 299 296 298 298 293 300 294 289 290 290 295 295 295 294 296 298 297 296 295 293 296 296 294 289 287 287 286 286 285 284 283 277 277 283 287 289 289 278 284 291 292 293 293 293 291 291 290 290 291 290 291 291 291
308 309 309 312 314 316 314 313 314 314 313 313 313 312 308 291 297 285 286 300 290 297 297 297 300 299 297 299 296 294 293 295 296 295 293 291 291 291 291 289 290 285 285 285 286 292 290 291 294 298 296 298 294 291 293 293 293 290 288 287 282 280 282 278 280 275 277 277 283 285 288 284 284 287 292 292 292 293 294 293 291 290 290 290 290 290 290 291
308 308 310 311 312 315 318 315 314 313 314 314 313 310 297 288 280 291 291 297 291 302 297 302 298 298 299 297 295 300 298 295 296 295 297 297 294 294 296 294 297 293 285 290 287 288 289 294 294 295 295 296 296 287 286 285 288 288 285 283 281 277 276 273 277 279 279 283 282 284 287 280 287 290 292 291 292 292 292 291 291 290 290 289 289 289 290 289
306 307 307 313 313 315 315 314 313 314 314 314 310 301 294 284 283 296 294 296 297 301 301 299 297 297 297 293 299 298 293 298 295 294 296 294 292 290 294 296 296 296 294 289 285 285 282 284 291 293 289 295 295 294 293 292 288 288 290 289 283 282 278 273 277 274 276 278 282 285 281 279 280 285 289 291 291 291 291 291 290 290 290 289 289 289 289 288
306 306 307 311 311 313 316 316 313 314 315 311 304 296 286 285 289 289 289 294 297 299 298 297 297 296 295 295 298 299 297 292 297 295 293 292 289 290 292 293 297 297 295 286 289 286 288 287 294 294 292 294 293 297 296 294 289 290 291 290 284 282 286 281 283 282 281 280 280 281 280 283 287 290 291 291 291 290 290 290 290 289 289 288 288 288 287 288
306 307 308 304 308 311 316 317 315 314 313 307 297 289 286 290 287 294 292 301 299 295 296 296 297 292 291 292 296 295 301 294 296 294 293 294 294 292 296 296 296 297 291 286 290 283 286 283 291 295 294 291 290 293 296 296 282 286 286 283 285 290 289 284 284 284 283 282 280 285 284 288 291 294 290 290 289 289 289 289 288 288 288 288 287 287 287 287
301 305 300 305 306 312 315 317 316 313 311 304 294 286 293 294 298 298 300 298 297 298 297 290 292 291 290 289 291 294 295 296 294 292 288 296 291 295 294 297 298 297 297 295 290 295 284 288 293 292 291 293 292 293 292 294 295 286 281 286 291 293 290 284 278 281 280 277 279 284 281 282 283 278 287 287 286 287 287 287 288 288 287 287 287 287 287 287
298 299 300 302 307 311 316 317 315 312 307 300 291 292 298 293 300 299 302 300 298 298 294 292 293 296 290 290 290 292 296 292 293 292 289 294 288 299 297 296 295 295 295 296 289 290 292 283 290 288 292 293 293 294 290 294 295 290 287 293 284 281 279 284 281 275 276 276 278 281 283 283 284 285 287 285 285 286 287 287 287 287 287 287 287 287 288 288
298 298 294 302 307 312 315 316 313 308 302 294 290 289 295 296 300 301 303 300 302 299 293 294 291 294 293 289 292 294 295 288 293 291 287 291 288 297 294 297 294 296 295 297 290 292 291 282 285 292 292 293 293 290 281 285 291 292 292 285 290 283 282 281 281 279 280 276 277 277 282 279 287 286 290 287 287 287 287 287 287 288 289 289 289 289 289 289
294 294 292 306 311 314 316 313 308 304 297 288 290 291 297 296 299 301 301 300 298 295 294 293 295 291 293 292 294 290 294 294 291 291 292 293 290 299 293 300 295 295 296 296 292 296 284 292 280 287 290 292 282 287 283 287 283 284 284 283 285 283 284 284 282 279 279 278 278 278 277 282 287 291 289 288 288 288 289 289 288 288 290 289 289 288 288 288
298 295 296 308 311 314 313 307 300 295 293 295 296 294 296 294 301 300 302 304 300 304 297 296 294 291 292 291 291 294 291 292 292 290 291 292 292 286 297 297 298 294 296 293 293 291 284 286 283 285 285 284 287 294 293 292 293 289 287 284 286 283 281 279 278 285 281 280 277 278 276 284 290 292 290 289 289 289 289 289 287 287 287 288 288 287 287 286
294 286 295 307 311 312 305 294 294 297 295 291 291 295 294 301 297 300 300 302 301 297 302 297 297 295 294 294 293 293 292 290 292 290 291 289 295 293 296 296 299 298 293 288 289 296 291 286 284 282 284 286 290 294 295 295 293 293 292 288 291 287 285 281 276 280 282 281 284 282 279 280 288 290 290 290 290 289 289 288 287 287 287 286 287 286 286 286
292 289 303 306 307 308 300 292 294 294 293 295 300 299 300 299 298 299 298 300 296 300 297 296 295 294 295 294 294 292 294 289 291 289 292 292 293 293 296 296 299 297 295 289 294 294 292 284 282 284 288 290 292 293 293 294 293 290 290 290 288 285 286 284 283 283 279 281 279 279 277 281 289 290 290 289 289 288 289 289 287 286 286 286 285 285 285 285
293 295 298 304 306 305 296 285 287 290 292 295 296 296 300 298 297 296 296 297 296 295 295 295 296 298 294 296 294 291 295 285 291 291 289 293 289 294 294 295 298 291 293 290 288 292 285 284 284 280 280 281 282 285 286 287 288 284 283 286 290 289 288 286 284 283 279 281 282 279 273 280 287 289 289 288 287 287 286 287 286 285 285 285 284 284 284 285
294 296 296 299 303 301 292 293 290 290 291 291 292 291 293 295 298 297 296 296 298 296 294 292 295 295 293 295 293 294 294 291 285 292 291 290 290 294 293 294 295 291 292 291 294 293 285 283 281 276 274 272 271 272 274 279 283 285 286 285 286 286 285 282 279 281 278 282 280 277 278 284 286 288 289 289 288 288 286 285 286 285 284 284 284 284 284 285
289 281 292 293 298 298 297 298 294 293 291 291 290 291 293 291 295 298 298 296 298 297 296 296 296 296 292 291 290 290 290 294 289 285 287 286 287 289 291 292 293 292 292 292 290 290 283 285 285 283 280 278 281 282 285 285 283 281 282 283 284 286 285 283 282 280 277 280 279 280 281 281 283 285 286 287 286 285 286 285 285 284 284 284 284 284 285 284
291 284 288 284 295 295 293 296 294 294 290 295 288 292 289 291 293 294 300 292 297 295 295 295 294 290 290 290 289 289 291 290 291 290 289 288 290 289 292 291 291 290 291 290 291 284 282 280 283 283 282 283 285 285 286 286 282 282 280 280 282 282 281 281 279 277 281 278 274 282 283 280 280 283 284 284 285 283 282 281 281 283 283 284 284 284 287 284
282 287 293 295 289 285 288 290 294 292 294 294 290 294 290 290 291 288 295 296 297 296 291 292 293 293 292 290 290 284 287 287 287 286 289 287 287 288 288 291 288 290 289 288 291 284 279 276 280 282 279 283 283 283 284 283 282 281 281 280 280 281 280 278 278 281 278 277 275 279 281 279 281 284 285 286 284 281 279 283 283 283 283 283 283 282 282 281
290 288 287 293 287 290 291 293 294 292 291 292 290 291 289 289 288 291 291 291 293 290 294 284 287 290 291 290 285 284 285 280 280 284 282 279 281 281 281 286 287 288 287 284 285 285 280 275 277 277 275 276 280 281 282 281 280 280 280 281 281 281 280 280 280 281 281 279 281 280 280 280 283 284 286 284 284 284 284 283 283 282 282 281 280 279 278 279
285 286 283 291 290 287 289 291 292 292 289 292 287 289 289 289 288 291 292 291 285 288 294 288 288 286 286 286 287 284 283 283 282 280 283 281 280 282 280 284 281 284 284 281 283 282 281 276 281 274 274 272 276 279 279 277 279 277 278 280 280 280 280 280 280 280 280 279 280 280 279 279 285 287 284 284 283 283 281 280 280 280 279 279 278 278 279 279
291 291 290 285 283 285 285 286 288 289 287 289 287 288 289 289 288 290 289 293 290 288 291 288 290 286 285 285 286 285 288 282 283 283 284 282 279 284 281 280 286 279 280 276 279 277 281 276 278 274 273 274 278 276 278 277 276 274 275 276 277 277 276 278 277 279 278 277 278 279 277 277 280 283 283 281 280 279 278 279 279 279 279 278 278 277 277 277
290 291 292 287 280 288 283 285 286 287 284 288 289 289 288 288 290 291 286 291 290 291 290 290 291 288 286 286 284 286 288 287 288 288 287 286 286 286 286 285 284 281 278 276 280 276 277 276 276 276 274 274 278 277 275 276 275 272 274 277 278 278 279 279 280 280 280 280 276 274 275 279 280 282 279 279 277 277 277 277 277 277 278 278 277 278 278 279
Wind_Speed
8 8 8 8 8 8 9 9 9 10 10 10 11 11 11 12 12 11 11 12 12 12 12 13 12 12 12 12 12 12 13 4 4 5 7 8 7 6 9 11 11 10 7 3 4 5 5 5 5 4 3 2 2 2 1 2 1 1 1 2 4 6 6 3 4 4 4 4 4 4 3 7 6 1 0 1 3 5 9 8 7 8 9 8 8 6 7 8
8 8 8 8 8 8 8 9 9 9 9 10 10 10 11 11 12 11 11 11 11 12 12 12 13 12 13 13 13 13 10 4 7 7 13 3 12 10 8 9 11 12 7 3 6 5 4 5 5 5 3 2 3 1 3 0 3 3 2 3 5 3 4 7 5 6 4 5 7 5 4 4 4 4 1 4 5 5 8 8 6 8 7 9 12 6 9 9
7 7 8 8 8 8 8 8 8 9 9 10 10 10 11 11 11 11 11 11 11 12 12 13 13 13 13 13 12 13 7 3 5 9 2 3 10 10 9 10 11 10 8 4 4 5 6 2 2 6 3 4 4 2 1 2 3 4 3 4 6 4 6 6 4 6 3 4 5 5 4 5 5 5 3 5 6 5 10 10 6 5 6 7 4 6 7 8
6 7 7 8 8 9 9 9 9 9 10 11 11 11 11 12 12 12 12 12 12 12 12 13 13 13 13 13 13 9 4 5 4 2 1 4 6 10 9 10 11 10 5 6 2 4 4 2 5 3 3 4 3 3 4 2 2 3 4 4 4 4 6 5 9 8 7 5 4 4 5 9 5 4 1 4 6 6 10 9 11 10 6 7 9 7 2 9
6 6 7 7 8 8 9 9 9 10 10 10 11 11 12 12 12 12 12 12 13 13 13 13 13 13 13 13 14 5 4 5 1 1 4 5 6 6 9 9 10 6 6 3 3 4 3 3 3 3 2 3 3 4 5 3 6 2 5 4 5 5 7 8 8 10 5 4 1 4 6 8 5 5 2 4 8 10 7 9 9 10 10 9 9 7 6 4
5 6 6 7 7 8 9 9 9 10 10 10 10 11 12 12 12 12 12 12 12 13 13 13 13 13 13 13 9 3 1 3 2 0 4 5 5 6 7 8 9 4 4 4 3 2 3 4 4 3 2 3 4 5 3 6 6 7 5 8 8 7 8 5 5 1 2 3 4 5 6 7 6 7 6 8 10 10 10 13 13 12 11 11 8 7 8 7
5 5 6 6 7 8 9 9 10 10 10 11 11 11 11 12 12 12 12 12 12 12 13 12 12 13 13 13 4 3 3 6 5 2 7 4 5 6 6 5 5 2 4 3 5 3 4 5 4 4 4 5 7 8 9 7 5 6 7 3 9 10 14 12 10 8 1 2 5 6 6 8 9 12 5 8 8 11 12 11 11 11 11 8 9 9 10 8
5 5 5 7 8 8 9 9 10 11 11 11 12 12 12 12 12 12 12 12 12 12 11 12 11 11 11 4 1 2 4 6 1 3 5 7 6 6 7 3 4 3 5 6 5 6 3 5 5 3 6 6 4 7 6 5 3 7 7 5 9 7 6 6 5 5 5 6 7 5 7 12 9 10 8 13 11 13 15 14 12 12 11 8 9 9 8 8
5 5 6 5 8 9 10 10 11 11 12 12 13 13 13 13 13 13 13 13 13 12 11 10 11 9 6 2 2 5 7 0 1 7 8 7 6 6 6 5 5 4 3 5 5 5 3 3 5 3 5 6 3 7 5 5 5 4 6 5 6 6 7 7 10 11 11 8 4 3 11 12 10 10 14 16 15 15 14 14 13 10 9 9 8 8 7 8
5 5 6 5 8 9 10 10 11 12 12 13 13 13 13 14 14 14 14 13 13 12 11 10 9 8 5 2 2 5 1 3 2 6 6 6 7 6 5 2 8 4 4 5 4 5 4 3 4 3 2 5 4 7 5 5 8 5 5 6 9 9 9 8 11 14 11 9 6 7 10 12 6 3 10 5 9 7 6 6 5 6 6 6 6 7 8 9
4 5 6 7 7 9 10 10 11 11 12 13 13 14 14 14 15 15 14 14 13 12 10 8 2 2 2 2 4 8 2 1 1 3 4 6 7 6 5 4 6 5 6 4 5 3 4 5 3 3 3 3 4 6 5 4 3 4 6 8 10 10 11 13 13 16 10 8 11 10 11 10 7 3 14 16 14 11 9 8 6 5 7 7 7 9 7 7
5 5 6 7 7 8 9 10 10 11 13 13 14 14 15 15 16 16 15 13 12 8 6 5 6 2 3 5 7 6 1 3 0 2 4 4 3 3 4 4 1 4 4 5 4 1 3 3 4 0 3 3 4 6 4 6 2 3 4 8 12 11 13 13 13 14 8 8 6 5 3 7 7 6 16 15 14 12 9 9 8 6 7 8 8 9 7 7
4 5 6 7 8 8 10 11 11 13 13 14 14 15 15 16 16 15 12 9 6 6 3 3 4 3 2 5 8 2 3 2 2 4 3 2 3 2 3 1 3 3 3 2 2 3 4 3 3 3 4 5 5 5 0 1 2 4 4 6 12 9 8 10 11 11 12 1 10 8 2 4 8 7 7 7 0 1 2 5 5 6 7 7 8 9 8 6
4 5 8 8 8 10 9 10 12 14 15 15 15 16 16 16 14 10 7 7 7 4 3 5 3 3 3 6 1 2 3 2 3 3 3 3 4 1 1 1 1 1 2 2 3 3 3 2 2 3 4 6 4 3 6 3 3 6 5 4 6 7 5 7 5 4 2 1 8 5 4 3 8 10 8 3 3 2 3 6 10 11 11 9 10 8 8 7
4 6 10 9 8 8 9 10 12 14 15 15 15 16 17 15 9 6 5 7 1 2 5 3 3 2 3 4 4 2 3 2 3 2 4 5 3 3 3 3 2 1 0 2 1 0 1 0 0 1 3 3 5 6 6 3 3 5 5 4 3 6 5 7 9 6 3 2 3 4 4 8 9 9 5 5 6 9 10 13 14 12 11 10 8 7 6 5
7 8 10 9 9 9 9 9 12 14 15 14 15 16 13 7 3 3 5 5 1 3 3 3 3 3 4 7 2 2 0 2 4 4 2 2 3 1 5 3 3 2 1 1 0 0 1 0 2 1 3 1 3 4 5 4 4 6 8 5 7 5 7 6 2 5 4 4 3 9 7 3 4 5 7 9 11 10 11 14 14 14 14 11 7 6 5 5
7 10 10 9 9 9 9 11 11 12 13 12 13 11 5 1 2 2 3 1 3 3 3 2 3 4 4 1 3 1 3 1 0 1 1 1 1 3 5 4 2 3 2 2 2 2 2 2 1 1 1 4 4 3 4 4 6 5 5 8 5 6 3 3 2 1 6 6 3 7 7 6 6 4 10 13 12 11 11 14 14 13 11 8 6 5 4 3
9 10 9 9 11 11 11 13 13 13 12 13 14 9 4 3 2 4 3 3 1 3 4 3 3 1 6 1 6 2 3 3 2 3 2 0 2 2 3 3 3 3 4 3 2 3 4 2 3 3 2 6 5 3 5 7 5 4 4 6 8 7 6 8 7 2 1 4 5 5 11 11 10 11 9 8 7 9 14 15 12 12 11 10 6 4 4 4
7 8 10 11 10 10 12 13 14 14 14 16 16 2 3 0 2 3 4 2 2 1 1 2 2 4 1 1 4 6 1 3 4 3 2 3 2 2 2 0 3 6 3 4 3 7 3 1 3 1 5 7 8 9 10 10 8 10 8 8 8 9 7 8 6 8 8 10 9 8 11 8 8 8 9 12 13 12 14 13 11 12 11 10 4 3 4 7
9 10 9 10 10 11 12 13 15 16 15 11 3 1 2 1 1 2 3 5 5 7 9 7 7 8 12 13 4 2 1 2 2 2 4 2 4 4 4 3 3 3 3 3 4 7 5 5 5 7 8 8 9 10 11 11 10 11 9 9 10 9 8 7 9 8 6 9 7 9 8 7 6 7 12 16 15 10 8 11 12 11 9 6 4 5 8 11
11 10 9 9 10 10 11 13 14 16 16 6 6 4 3 4 3 2 5 8 10 10 12 11 11 12 12 8 3 4 2 4 4 3 2 2 2 7 5 4 4 5 5 5 4 1 6 5 6 8 9 11 12 10 9 11 9 7 7 7 9 5 11 7 10 6 9 7 5 5 8 8 9 11 17 15 8 13 8 9 11 12 5 2 8 7 9 9
10 10 9 8 8 9 11 11 14 15 17 5 3 5 3 3 1 1 1 5 3 6 10 11 12 13 11 13 2 0 5 2 5 5 1 2 5 5 5 6 7 6 5 7 2 2 4 7 6 9 11 12 10 9 10 10 9 7 7 6 7 6 9 9 11 11 3 2 4 4 6 7 9 16 19 13 11 11 9 9 12 12 3 5 7 9 10 10
8 9 10 8 7 8 10 11 12 13 7 5 4 5 3 2 1 1 1 4 9 11 10 12 14 16 13 6 4 3 4 7 7 6 5 2 5 6 2 6 6 5 5 6 8 4 5 4 14 14 9 10 9 9 9 9 8 5 4 5 7 5 5 4 3 6 2 2 6 8 11 7 12 16 17 15 8 8 8 10 12 2 11 12 12 9 10 10
8 6 7 7 6 7 9 11 13 7 1 2 5 3 1 2 1 1 1 4 6 6 8 3 3 3 3 2 4 4 3 3 2 5 5 5 5 4 3 5 5 5 6 7 10 9 9 4 4 4 11 9 10 8 7 6 7 3 5 6 7 7 7 7 5 5 6 6 7 7 6 5 10 12 9 7 6 6 8 9 2 10 11 13 12 13 12 12
7 5 4 5 5 5 7 9 3 2 1 1 4 2 2 2 1 2 1 4 4 6 3 1 2 1 2 2 0 3 2 4 3 3 5 5 5 5 6 3 4 7 6 7 9 11 10 9 10 10 4 5 5 5 9 4 5 5 5 7 6 6 6 4 6 7 4 5 2 4 5 2 1 1 6 9 3 5 5 3 7 10 10 10 12 11 12 12
4 4 4 3 4 4 5 3 2 2 3 2 3 2 1 2 2 1 1 3 6 1 2 5 0 2 0 2 1 2 2 3 2 2 2 2 2 2 0 4 3 5 5 5 8 4 3 2 1 3 4 5 4 5 6 1 4 3 3 3 2 2 4 4 5 3 3 1 2 2 1 7 1 10 11 11 6 9 2 11 13 12 10 9 10 11 11 10
6 4 0 3 4 1 2 1 2 2 2 2 2 2 1 2 1 0 1 3 4 2 2 3 1 1 1 2 1 2 3 1 1 2 1 3 2 1 3 2 2 2 0 0 3 4 4 6 3 2 0 1 2 7 5 6 4 5 0 3 3 3 2 2 2 3 7 4 5 5 5 8 5 6 11 13 9 9 10 11 11 10 11 12 12 13 11 11
8 7 6 2 2 5 2 2 3 2 3 2 3 1 1 1 2 1 1 4 2 1 1 1 1 0 1 1 1 3 2 3 2 1 2 1 0 2 0 5 3 2 2 2 5 1 1 4 3 3 2 3 6 7 2 2 4 1 0 4 2 1 2 2 4 5 4 5 6 6 5 1 4 7 7 6 10 3 12 10 8 10 10 12 13 12 12 11
9 8 7 2 2 3 3 2 0 0 1 2 2 2 1 1 0 2 2 3 2 0 2 2 3 1 1 0 3 3 1 2 2 1 1 0 0 1 4 5 3 4 2 6 5 1 2 1 2 5 4 6 5 2 1 4 3 1 2 0 1 2 3 5 4 3 4 1 5 3 7 4 6 6 3 2 1 8 8 8 9 8 11 11 10 10 10 9
9 9 8 3 5 2 2 2 2 1 2 2 2 0 0 2 0 1 2 6 3 1 1 2 1 3 3 3 3 4 3 2 1 2 3 2 4 1 1 3 2 2 3 3 6 9 1 2 2 1 5 3 2 1 1 3 2 2 1 1 3 3 6 3 3 1 2 4 7 9 11 7 3 2 5 3 1 12 9 8 8 8 10 11 9 8 8 8
9 9 8 6 1 1 1 1 1 2 2 2 2 1 1 0 1 2 6 1 2 2 2 2 2 2 4 4 1 3 3 3 3 4 2 0 2 2 2 1 1 2 1 3 7 8 2 1 0 3 5 2 3 2 3 0 1 1 0 0 3 7 1 1 1 4 1 5 3 2 12 10 5 3 1 6 6 8 10 11 10 10 8 8 7 6 6 8
7 6 7 4 1 2 2 1 1 1 2 2 1 1 1 3 3 7 2 4 0 2 1 1 1 1 3 2 1 4 3 2 3 3 5 3 3 5 5 2 3 0 2 4 3 2 3 8 5 3 3 6 2 0 0 0 1 2 2 1 1 3 1 2 3 1 4 5 2 6 2 2 6 3 10 7 7 9 8 8 10 12 10 7 7 6 5 5
8 8 6 1 0 1 1 2 1 2 2 0 0 1 1 2 8 6 6 2 3 2 1 3 1 1 0 0 2 2 2 1 4 4 4 3 2 5 7 7 4 3 3 1 4 4 4 1 6 3 4 3 4 4 2 1 4 4 4 4 1 3 1 5 4 3 3 1 2 2 3 1 2 4 3 9 6 9 11 10 9 9 8 8 6 6 5 6
8 7 3 2 1 1 3 2 3 3 2 0 2 1 3 6 5 5 4 4 4 1 4 1 0 0 0 2 1 1 1 2 5 2 3 2 3 2 3 8 6 3 3 3 3 2 5 5 3 6 2 5 6 7 2 0 7 9 3 7 5 3 1 4 2 5 5 5 1 0 3 5 2 3 4 9 9 10 10 11 8 7 7 7 6 6 7 5
6 3 3 3 3 4 4 4 4 3 1 1 1 4 7 11 2 3 4 4 4 2 2 1 1 1 3 3 4 3 4 2 2 2 2 2 3 3 3 3 7 5 1 0 4 1 7 6 1 3 2 2 5 2 2 2 1 3 1 3 1 4 2 7 4 7 5 4 5 2 4 2 0 6 6 7 9 10 9 10 8 7 6 5 6 5 4 4
4 1 2 2 2 2 6 4 4 3 2 3 4 8 14 6 2 4 4 4 4 6 1 2 2 3 5 5 4 8 3 4 1 1 2 4 4 5 2 2 3 11 5 6 0 3 2 3 0 1 4 3 1 4 2 1 1 1 3 1 3 2 1 4 4 4 5 5 12 4 5 8 3 4 10 8 9 7 7 7 7 7 5 5 5 4 4 3
1 1 3 4 6 4 6 6 5 4 2 5 5 11 8 5 10 5 3 2 2 3 2 6 3 6 2 3 3 6 2 2 2 2 2 1 4 7 5 2 7 4 2 1 2 2 3 2 1 2 1 1 1 0 2 3 0 4 0 4 1 1 2 1 5 2 5 10 9 8 10 6 2 4 3 4 9 5 5 5 6 6 4 5 4 3 3 3
2 2 4 5 3 6 6 7 7 4 4 6 12 14 2 8 8 13 2 0 1 4 6 5 4 2 4 5 4 2 3 2 3 4 2 3 3 3 2 1 5 5 4 3 1 2 3 4 1 2 3 1 0 0 3 0 4 2 1 1 1 2 4 1 1 5 7 10 7 5 9 10 8 6 5 6 8 7 6 5 5 5 5 4 4 4 3 3
1 1 4 3 8 8 8 9 6 7 8 9 12 11 8 12 4 3 1 5 1 1 6 6 5 3 5 5 4 3 4 3 3 3 2 2 6 4 4 2 1 6 7 3 2 1 3 2 2 0 2 1 1 1 2 1 1 3 1 3 1 2 4 5 3 1 2 7 6 6 8 7 4 2 1 6 8 8 8 4 4 5 5 3 3 3 3 3
2 1 4 2 2 8 8 8 7 9 10 15 13 12 2 1 10 12 9 2 2 3 4 5 4 7 6 7 4 4 2 5 3 4 2 1 2 1 2 6 2 1 6 5 3 0 1 1 4 1 1 2 2 3 4 3 2 1 1 1 0 0 1 1 2 3 4 4 6 7 9 6 3 7 5 8 5 5 6 6 4 4 4 4 3 3 3 3
2 2 1 2 1 6 8 6 9 15 13 8 8 7 6 6 2 2 3 1 3 3 0 2 2 7 5 4 8 6 5 3 2 3 2 1 3 3 2 1 3 2 1 0 3 1 1 1 5 2 4 3 4 0 2 3 1 5 5 6 7 4 4 5 9 3 2 6 5 6 11 4 2 5 7 6 4 6 5 5 4 4 4 3 3 2 2 1
4 3 2 1 2 9 9 12 8 5 5 11 9 6 5 3 5 3 1 0 4 2 2 2 4 4 2 6 3 1 1 0 2 3 2 5 1 4 1 5 2 1 1 0 1 1 2 0 1 5 6 8 7 5 4 5 5 3 5 5 3 1 2 4 10 8 5 5 6 8 10 4 4 4 6 6 5 5 4 4 4 3 3 3 3 2 1 1
4 2 3 2 3 8 8 6 6 7 10 9 2 6 4 2 1 1 4 2 1 2 1 3 4 5 7 7 4 6 4 4 4 5 2 2 2 2 2 3 1 1 2 1 2 0 8 1 2 6 7 7 9 7 2 2 4 8 1 2 1 1 2 5 7 4 4 5 6 4 8 2 1 2 2 5 4 3 2 1 4 4 3 3 3 2 2 1
3 2 3 1 1 2 8 9 10 11 10 4 7 8 6 5 5 4 4 3 4 2 4 3 2 7 5 3 3 6 5 5 5 10 6 5 2 3 5 4 3 1 0 2 1 5 1 4 3 1 3 3 5 4 1 3 4 3 1 1 3 2 3 2 3 2 7 5 12 8 9 3 1 3 2 4 3 3 3 0 2 3 3 3 3 2 1 1
0 2 2 1 1 3 10 5 4 9 9 10 8 11 9 6 7 9 6 6 5 5 2 3 5 1 4 3 5 3 2 4 1 2 2 1 2 1 6 5 6 3 4 3 3 2 2 2 1 3 6 9 8 8 5 0 3 1 1 2 3 4 5 4 4 2 7 2 1 2 5 1 2 11 15 13 5 0 3 3 2 3 3 3 3 2 1 0
3 2 3 1 4 4 4 2 3 3 4 8 10 10 9 9 5 6 8 7 7 4 6 2 3 2 1 2 2 3 4 3 4 1 1 1 1 1 2 6 6 3 2 3 2 1 1 1 1 4 7 9 8 5 3 3 2 5 4 5 8 7 5 5 5 7 12 10 11 7 9 13 14 14 13 9 6 5 3 5 4 3 2 2 1 1 0 1
3 1 3 4 4 7 5 4 5 4 2 2 6 4 10 11 6 4 9 4 6 8 4 7 3 3 3 4 4 6 6 4 4 5 5 4 1 2 3 4 5 3 3 2 2 3 1 1 6 7 8 9 9 10 10 8 8 5 4 4 5 6 4 7 8 12 4 7 13 6 11 10 11 10 10 10 9 5 1 3 1 0 1 2 2 1 2 1
3 3 0 2 5 6 11 10 8 4 8 4 3 3 3 8 9 6 2 5 2 2 3 2 8 8 5 6 3 3 3 5 5 6 5 3 2 2 2 2 2 4 3 1 2 2 1 3 3 5 4 7 5 5 3 4 3 3 6 7 10 10 11 12 12 9 5 10 16 11 11 14 11 12 11 12 5 0 3 2 2 1 1 2 1 1 1 1
2 2 2 4 1 3 7 1 7 6 6 6 3 3 3 3 4 4 1 3 1 2 3 3 5 4 4 2 3 2 1 1 2 2 1 1 2 2 1 1 0 4 0 1 0 1 1 2 4 0 3 3 5 6 4 6 4 7 9 11 11 13 15 13 12 10 11 11 10 12 13 17 15 16 16 4 4 3 3 3 1 1 1 2 3 4 3 3
1 1 2 1 1 3 2 2 5 7 9 8 7 9 3 4 7 2 1 3 2 3 2 3 3 4 3 2 1 3 1 1 1 2 1 4 3 1 1 1 1 1 0 1 0 3 2 4 7 2 0 4 5 5 1 2 4 8 6 11 13 15 13 10 11 13 12 11 13 16 16 19 15 11 1 3 3 3 3 3 4 3 4 4 3 2 2 3
0 2 1 3 0 2 3 0 3 8 7 8 10 11 6 8 9 5 4 2 2 3 3 4 3 5 1 3 2 1 1 4 2 1 1 2 3 1 3 3 4 1 1 1 0 2 0 4 1 2 2 6 5 4 1 2 1 4 8 16 19 13 12 12 12 7 9 13 13 13 12 10 2 6 3 4 4 4 3 3 3 3 2 3 2 2 4 4
2 2 1 2 1 3 5 3 2 4 8 9 7 9 7 6 7 3 4 2 3 3 2 4 3 5 2 4 3 2 5 6 4 4 4 3 3 1 2 0 0 4 2 3 2 3 2 4 1 1 5 7 10 3 5 1 4 9 16 22 15 14 15 15 13 13 14 12 12 10 8 0 1 1 3 1 5 3 4 3 4 3 3 2 3 4 4 4
Wind_Direction
32 29 27 24 23 20 19 17 14 13 11 10 7 4 4 5 1 359 0 355 351 350 346 342 343 341 337 336 336 331 326 299 296 261 241 241 133 131 100 118 142 151 167 166 207 158 191 209 213 151 210 121 186 239 117 177 244 155 212 197 255 238 264 306 331 338 348 330 327 333 340 341 322 27 184 46 256 234 256 250 250 244 243 234 231 222 153 149
25 23 20 18 16 15 12 10 11 8 7 5 3 360 359 358 357 354 354 353 349 345 343 340 338 338 336 334 334 332 324 280 276 272 252 131 125 124 123 130 140 163 163 219 193 200 218 196 212 159 208 220 150 207 131 215 143 194 258 235 248 264 277 329 315 302 336 314 332 309 304 326 307 352 314 305 289 303 299 280 282 280 267 248 234 195 148 156
22 18 16 12 9 9 7 1 3 2 1 357 357 357 354 353 352 352 349 349 347 343 339 339 338 334 333 333 332 328 330 293 278 270 31 13 123 125 135 146 156 166 176 193 198 226 241 285 225 169 213 262 156 193 136 200 163 217 214 249 255 262 273 278 300 312 312 301 292 324 341 334 305 305 280 249 271 279 267 284 289 268 276 272 290 199 171 171
19 15 13 10 5 4 0 357 356 356 356 353 350 353 351 348 347 349 346 345 343 342 339 337 335 335 329 330 330 324 288 285 281 77 65 114 133 127 144 154 169 180 228 277 288 247 264 307 299 196 267 238 264 201 158 185 129 183 193 224 245 271 313 305 310 297 300 340 357 339 325 301 291 283 37 296 299 250 259 254 260 268 275 313 320 322 209 188
12 9 8 3 4 358 356 352 352 351 352 349 347 344 347 344 342 342 343 340 341 338 337 335 334 330 332 322 323 299 323 290 101 10 101 130 114 141 145 161 173 184 218 257 290 276 273 266 246 248 230 277 250 250 219 222 186 298 242 248 266 297 287 290 297 320 9 35 310 300 296 282 318 295 215 219 246 260 258 268 271 288 297 293 302 302 302 273
10 7 2 1 356 355 349 345 347 347 345 344 342 340 338 339 337 334 336 335 333 334 332 332 330 330 325 321 313 278 290 316 175 52 163 127 135 133 149 158 177 206 209 254 245 221 234 230 245 221 236 231 249 252 245 212 186 244 230 248 241 246 259 273 277 335 66 323 303 292 272 304 297 284 275 269 252 264 255 264 269 273 275 279 283 283 282 270
8 6 0 354 350 348 345 339 342 341 339 337 336 335 333 333 331 330 327 330 326 326 327 328 327 328 327 308 254 279 235 264 290 146 126 154 123 126 131 140 163 236 230 239 227 217 211 253 209 251 256 256 250 252 252 264 262 239 256 297 295 301 282 286 290 305 197 244 266 267 305 285 289 285 269 261 260 263 271 266 268 269 269 271 271 269 263 263
1 359 355 346 344 344 339 338 338 337 336 333 333 332 331 328 328 325 326 320 322 320 323 322 326 322 343 322 260 240 212 253 335 96 117 122 126 118 125 145 167 202 215 223 210 219 227 243 253 266 259 256 280 285 317 314 299 291 269 243 255 254 278 294 296 284 280 272 276 277 271 263 267 270 295 268 268 264 268 270 269 270 274 267 265 269 265 264
352 342 344 343 341 339 337 336 335 335 333 333 331 330 328 325 323 323 318 318 316 316 315 321 309 320 317 286 273 295 259 56 339 132 149 138 133 142 156 138 211 193 218 234 241 247 242 236 248 247 295 294 306 312 318 326 269 221 272 323 317 308 309 306 303 292 284 281 235 239 256 268 265 286 267 265 261 256 252 260 265 263 264 266 261 254 255 255
339 337 341 349 340 334 333 333 332 332 333 330 328 326 324 322 318 317 315 312 312 313 309 308 311 305 312 214 248 252 260 207 116 152 158 139 124 146 217 188 172 212 229 225 250 245 235 266 291 38 17 310 279 270 295 264 270 349 330 315 309 300 300 283 270 272 259 251 242 231 258 264 268 299 279 257 254 251 250 247 253 256 248 261 266 260 249 251
318 328 332 334 331 330 330 331 329 329 330 328 326 324 322 319 316 311 311 309 307 305 306 286 320 321 240 203 243 259 133 233 283 84 129 131 144 153 200 218 168 218 228 249 242 271 297 299 328 10 343 261 356 289 256 272 4 359 333 315 290 285 273 269 262 259 254 252 226 228 251 271 276 247 256 270 272 266 271 275 259 264 281 276 271 272 269 259
306 318 327 326 328 331 334 334 332 331 330 328 325 323 320 317 313 310 307 306 301 296 289 287 168 238 290 243 239 239 349 54 149 132 119 168 155 103 15 347 199 219 234 249 242 335 0 23 27 338 250 41 270 321 288 354 350 355 355 302 284 282 278 266 260 258 236 241 164 175 262 284 273 237 248 251 262 273 268 261 267 251 247 258 260 261 261 257
287 312 310 294 297 307 322 326 325 325 326 325 324 321 318 315 311 306 303 302 291 284 272 252 165 247 259 254 235 58 290 113 102 135 139 98 83 68 45 15 357 352 17 321 13 0 358 20 18 292 268 281 289 275 189 214 294 271 238 252 287 286 271 271 256 241 233 230 130 109 268 200 260 260 277 280 258 353 351 310 278 263 260 269 275 274 274 277
272 291 282 287 301 304 305 312 310 319 321 321 321 319 316 315 311 306 295 280 294 291 220 162 221 212 235 253 74 303 15 313 134 185 144 135 146 103 175 90 307 321 33 336 73 355 38 22 7 270 296 283 277 21 297 288 281 266 266 244 270 307 270 282 272 109 134 352 128 138 226 252 271 278 278 282 109 359 311 286 278 275 271 267 266 267 269 268
261 276 278 290 297 295 293 305 317 321 320 317 317 316 316 313 316 313 304 289 154 58 157 187 240 210 203 256 88 113 267 308 187 183 145 169 162 146 174 158 156 213 70 37 29 309 43 11 92 251 259 236 250 266 277 268 246 252 287 230 224 210 260 264 276 154 170 264 194 122 252 246 249 262 281 317 329 328 309 292 284 281 277 271 274 276 272 271
252 264 273 279 282 284 299 314 317 316 314 311 311 313 306 303 293 313 17 330 53 174 162 191 183 246 322 276 181 43 226 207 151 34 69 316 195 295 131 143 122 130 193 94 26 327 269 283 208 289 290 230 228 256 279 308 262 244 227 260 258 246 268 294 282 162 164 128 257 163 232 242 265 288 302 304 303 293 287 278 278 275 273 276 278 275 277 290
245 255 268 278 283 303 317 313 309 308 307 308 307 303 295 264 263 341 358 336 178 199 235 339 151 175 279 91 91 234 166 99 121 166 102 278 304 152 131 118 180 155 170 112 207 176 168 140 125 358 207 257 256 257 299 250 275 255 219 250 228 250 289 260 301 16 116 144 200 233 247 226 244 281 284 277 271 271 264 266 267 272 278 280 276 280 286 300
238 253 268 284 301 308 310 311 311 311 311 310 307 288 281 188 268 300 213 248 185 219 243 222 253 284 239 92 277 276 99 125 185 115 83 28 294 174 170 177 117 157 158 163 150 196 146 200 158 218 183 218 233 233 215 244 221 258 283 300 292 296 291 287 302 259 199 178 232 215 225 244 245 241 252 274 271 273 270 267 275 283 290 291 293 308 307 50
254 271 284 295 304 308 310 311 314 317 318 315 292 306 179 323 250 240 266 167 236 146 184 172 208 180 330 326 239 119 45 110 101 158 173 165 214 225 201 193 150 158 181 186 186 183 150 250 162 197 237 221 217 210 221 240 253 266 276 279 291 293 290 285 286 290 291 287 281 269 275 287 295 303 293 284 272 262 269 283 285 282 284 290 313 301 50 64
259 264 277 292 300 307 311 313 318 318 325 330 323 140 205 223 196 149 220 220 247 271 303 295 222 268 294 293 318 47 60 225 192 225 116 193 147 178 185 186 185 213 212 189 149 205 140 179 183 199 221 227 238 232 235 243 245 255 259 256 259 271 279 291 280 288 292 296 276 286 287 286 294 282 277 267 272 272 273 279 279 275 273 288 310 52 68 64
252 257 268 286 298 304 310 319 320 319 323 303 291 288 24 10 315 310 342 269 261 258 264 270 263 267 266 282 154 180 191 202 237 142 170 174 199 151 182 194 166 208 218 224 159 221 150 210 217 216 231 239 244 256 268 278 279 296 293 291 284 275 281 275 287 302 293 279 305 301 295 299 295 292 274 273 285 280 271 269 271 274 269 31 70 64 66 78
245 252 260 274 284 299 313 320 320 317 314 266 305 31 80 51 356 12 281 299 284 282 270 258 258 255 252 249 261 142 97 276 210 141 74 205 179 213 165 189 178 209 193 207 131 53 216 224 232 231 233 244 253 260 265 271 275 274 276 286 290 280 282 279 273 269 274 41 273 286 297 294 289 276 277 283 269 262 256 240 255 262 299 66 67 68 67 69
238 239 253 260 274 303 316 318 316 318 318 11 27 36 56 20 27 315 287 276 263 250 255 250 241 240 242 241 65 282 228 211 256 150 172 178 149 237 157 192 220 218 232 190 206 166 236 214 235 236 240 250 255 253 259 263 261 252 271 283 263 271 271 297 265 330 344 343 307 304 292 295 278 269 274 275 266 255 254 247 247 317 75 71 60 63 74 63
243 234 248 267 290 309 315 320 309 294 74 18 56 58 60 11 328 295 248 242 292 239 227 248 305 336 10 299 56 339 232 286 241 238 154 168 180 188 257 221 228 244 234 223 210 225 227 233 254 199 226 235 254 264 270 259 261 241 229 241 266 272 261 256 297 338 330 311 288 298 287 269 255 272 290 281 251 245 246 248 341 75 87 91 78 67 61 64
246 253 255 277 294 315 315 327 294 77 66 246 97 68 71 46 17 0 298 274 211 242 48 97 14 42 24 174 179 209 228 243 257 65 182 201 193 143 229 215 230 236 243 242 239 236 251 252 255 261 241 243 245 261 251 254 288 285 263 252 261 274 296 325 339 349 340 311 31 41 330 240 312 293 300 299 275 242 251 241 82 74 80 80 89 93 85 69
244 250 252 251 279 300 323 308 84 16 296 65 67 105 79 97 343 37 304 281 284 182 344 172 318 172 273 144 88 222 15 232 0 50 354 41 25 267 108 229 183 248 249 249 250 254 266 51 345 214 227 249 259 265 264 18 266 292 260 19 3 12 349 331 326 26 302 234 262 93 102 278 259 271 262 268 240 243 307 62 78 78 74 65 60 54 52 61
59 53 40 227 223 242 261 88 309 297 239 114 93 65 62 75 296 102 272 244 271 125 135 334 315 195 39 123 202 52 213 116 244 44 254 25 342 151 278 235 124 300 22 12 32 283 181 213 80 29 98 243 265 248 247 208 217 250 300 323 25 27 7 341 326 250 255 269 266 266 230 258 286 274 259 247 239 234 80 75 62 72 73 69 62 59 55 48
39 39 35 40 218 204 11 314 305 295 46 57 63 63 82 146 86 162 202 304 254 118 129 168 15 86 322 155 248 262 57 136 157 164 35 60 250 133 92 262 247 255 181 132 212 344 224 190 150 163 182 201 217 225 228 165 178 192 311 45 7 44 300 292 271 262 259 315 285 201 197 281 242 243 240 229 224 91 92 87 90 82 79 75 69 61 55 46
37 29 22 49 116 195 346 24 51 19 172 12 50 31 349 234 274 333 320 266 342 334 329 106 322 179 122 200 203 243 158 201 293 116 249 120 26 20 185 236 289 293 286 179 230 233 12 87 192 180 158 210 225 251 7 140 223 173 227 135 290 248 256 236 244 277 301 276 265 180 182 208 283 259 186 255 355 102 100 84 76 68 60 55 59 66 70 65
28 25 20 39 127 116 142 122 243 111 101 66 65 276 44 234 251 249 187 245 51 280 157 119 185 147 174 192 201 180 208 148 80 123 192 224 149 353 266 116 264 317 279 242 241 245 231 261 20 256 207 223 113 82 44 67 110 156 172 269 281 243 240 253 224 283 332 245 248 213 196 176 307 289 207 181 252 123 124 115 109 87 77 70 52 46 54 64
28 17 12 342 113 23 142 212 61 54 129 99 112 215 248 48 240 258 234 258 351 218 72 167 141 125 176 229 189 152 276 143 149 152 137 331 113 271 283 334 8 322 319 309 270 256 215 111 102 244 222 105 120 100 352 101 135 136 35 47 338 296 167 148 262 131 164 274 282 271 177 191 175 267 191 46 51 110 131 133 117 90 71 75 76 60 53 53
21 6 2 12 5 308 223 100 163 184 153 164 158 325 26 320 195 216 225 90 320 185 178 85 126 205 236 86 293 168 178 190 158 198 186 177 160 170 199 200 156 168 266 190 262 94 221 212 201 123 328 154 156 60 136 65 118 115 173 142 104 269 14 268 102 315 200 230 261 20 30 253 248 256 282 65 30 74 98 112 115 112 109 100 89 82 62 63
7 352 321 216 160 213 42 103 156 142 137 155 227 43 169 179 256 177 233 168 287 65 157 15 51 200 142 141 225 114 44 207 152 207 238 168 192 219 193 204 207 179 237 355 328 325 254 178 181 174 41 245 150 145 197 355 200 160 172 170 169 315 285 263 252 236 271 232 271 59 8 237 246 273 22 101 78 69 69 71 84 98 105 105 99 88 81 70
8 346 330 105 198 267 99 145 127 156 158 82 96 103 106 229 234 57 264 212 233 156 86 113 6 217 280 259 60 152 278 194 156 189 162 186 161 257 234 212 224 247 192 275 236 194 296 295 209 154 246 163 190 201 183 171 157 197 206 157 179 188 198 276 267 259 246 237 311 289 39 224 130 229 137 112 103 93 93 95 91 93 93 91 89 88 75 61
331 309 279 282 237 222 171 141 149 189 262 155 105 195 226 237 194 231 215 254 295 252 147 68 143 9 253 236 269 230 160 296 198 129 185 204 221 206 204 208 203 200 174 5 221 180 203 236 21 17 257 181 170 321 51 26 89 203 242 44 71 224 148 251 261 279 288 316 304 243 194 259 20 133 111 112 106 99 103 109 109 104 102 98 92 91 88 84
311 161 160 243 209 191 160 153 161 178 170 154 178 220 227 195 214 166 233 233 240 248 219 153 147 228 252 272 255 257 105 199 114 114 255 214 237 256 231 252 251 168 179 183 127 289 39 278 23 76 4 73 4 347 357 10 209 312 59 218 207 339 116 268 296 270 304 296 257 257 275 263 287 216 108 120 101 91 104 104 109 111 115 108 96 94 101 100
357 319 230 204 218 169 157 150 160 159 191 180 199 240 220 238 225 266 293 256 319 329 250 257 207 179 208 220 195 200 183 57 256 139 253 168 279 225 234 231 29 172 197 131 304 90 180 276 170 150 208 14 200 303 307 22 355 62 175 232 309 224 95 181 260 242 245 246 262 256 268 279 272 276 127 103 104 125 107 121 120 119 111 95 104 110 108 113
349 270 271 256 203 163 153 151 145 154 166 196 221 236 127 240 200 229 226 159 223 229 263 227 242 199 266 279 277 313 124 157 196 159 264 177 271 46 326 81 18 19 19 37 178 303 63 305 206 348 123 228 52 319 347 56 59 152 212 338 86 268 312 251 135 250 239 243 265 225 258 259 240 226 142 171 139 144 139 131 123 113 106 114 122 122 131 123
172 274 266 232 189 166 153 148 152 156 186 213 228 248 228 241 256 253 293 269 200 251 226 225 249 222 257 260 284 320 141 174 193 181 88 207 222 30 55 11 29 21 10 0 74 338 34 212 278 155 89 112 15 94 247 257 353 130 144 10 59 112 227 235 216 207 307 263 263 243 230 250 227 197 297 129 135 140 135 119 98 96 98 114 126 127 146 144
166 122 247 21 319 142 141 148 161 181 201 215 217 222 171 233 223 234 242 199 240 174 230 258 232 268 253 263 278 265 191 198 215 265 231 261 266 62 77 359 115 9 17 31 114 347 291 122 237 167 281 23 336 172 209 183 199 36 55 266 20 104 250 120 308 174 199 257 238 269 251 253 303 357 61 113 112 125 126 123 133 138 145 134 137 141 150 154
246 275 296 2 152 134 132 148 181 198 207 239 250 246 227 233 74 49 83 109 240 60 116 237 242 237 250 266 247 234 249 215 175 232 227 288 215 291 34 31 320 141 141 10 81 267 75 260 232 345 326 229 240 268 263 292 216 164 189 202 200 199 287 268 261 166 185 215 234 239 259 255 48 20 71 82 80 90 92 114 130 142 126 130 117 127 137 135
186 195 154 32 217 166 154 169 210 196 221 217 215 197 232 219 249 198 88 174 206 241 87 254 254 273 251 254 260 325 41 302 248 248 240 234 175 228 155 243 323 42 64 280 100 338 124 108 53 254 244 263 265 256 274 278 280 253 179 236 196 246 171 203 258 250 255 215 238 240 273 229 45 332 59 69 87 87 111 135 139 138 134 121 128 115 68 107
211 221 32 256 348 192 178 211 202 200 218 236 300 298 268 281 197 181 190 145 296 211 220 209 218 240 232 243 251 260 231 249 176 231 221 197 241 19 163 221 303 105 60 278 124 219 60 149 189 257 249 268 275 272 269 296 235 254 227 64 57 254 289 288 277 345 293 279 246 230 237 217 287 313 75 110 110 111 97 158 141 150 149 145 139 158 145 127
217 190 152 55 329 268 196 195 202 210 227 243 215 241 232 240 228 217 226 208 178 167 212 205 256 220 268 241 234 241 203 261 213 216 246 231 195 51 25 32 306 127 257 260 135 257 119 283 122 320 309 296 300 303 32 352 44 62 106 274 134 232 290 262 277 176 261 191 245 257 255 269 263 214 148 138 130 174 138 47 166 169 157 163 150 156 156 164
268 16 79 145 116 238 210 226 237 210 212 222 218 230 229 234 232 243 229 214 207 230 223 234 237 293 236 217 254 270 266 244 312 329 141 344 107 41 4 24 360 89 34 332 68 341 120 230 122 230 257 270 271 264 265 28 8 32 226 273 271 262 273 320 291 270 274 198 136 276 286 293 13 304 307 304 302 179 143 198 226 161 167 169 144 171 163 144
196 191 176 73 211 249 267 302 336 289 235 211 227 232 229 239 228 210 218 250 239 237 239 312 55 58 287 312 243 216 234 241 208 243 80 196 112 36 84 32 41 87 117 128 37 43 135 288 165 211 225 242 254 280 308 318 280 275 292 298 286 274 259 241 257 257 260 274 279 256 271 278 285 287 287 297 330 319 231 194 183 150 136 135 136 132 183 216
310 226 164 185 178 244 243 222 233 243 234 252 228 194 224 225 232 237 173 233 217 232 224 211 202 198 221 212 242 259 237 238 233 239 243 238 148 143 143 124 76 79 140 68 274 75 180 210 228 229 233 245 256 263 273 275 277 282 288 270 289 285 269 265 239 256 319 334 267 247 267 283 281 293 306 311 308 307 88 134 109 132 161 177 189 151 224 255
200 254 87 175 205 197 213 223 215 226 254 298 294 309 241 220 211 218 149 205 70 344 197 243 208 217 237 231 214 229 216 234 225 234 222 255 117 157 87 196 125 175 170 139 186 116 150 239 254 260 256 259 264 284 349 346 337 284 278 276 275 277 278 264 259 268 282 253 267 281 285 279 281 283 290 296 332 253 173 142 162 148 102 122 151 177 252 278
265 335 279 298 178 216 210 269 188 195 231 242 280 283 279 273 242 228 184 155 116 275 231 223 230 215 220 203 166 214 224 198 251 69 130 38 65 73 67 110 314 133 243 74 79 179 109 281 258 32 272 295 288 285 304 302 313 298 277 273 270 266 260 266 277 276 263 270 288 287 281 280 286 282 286 304 102 89 86 103 129 112 131 67 46 21 12 348
251 245 262 86 11 12 62 146 187 198 230 221 242 234 239 254 259 244 103 172 196 221 206 253 191 83 105 95 140 174 211 129 143 143 42 103 341 165 152 289 135 33 117 152 133 310 108 271 99 332 53 272 269 264 262 257 253 268 283 273 264 260 265 270 271 267 280 277 265 265 268 269 264 275 16 116 90 92 56 57 43 46 56 45 39 344 318 292
338 59 1 322 308 220 68 5 189 195 218 216 227 240 245 236 252 256 271 36 204 212 199 212 149 95 94 127 122 184 216 151 127 142 138 131 188 344 106 295 76 151 89 53 347 284 115 251 42 141 296 273 266 260 223 136 292 264 273 265 257 256 266 256 255 250 251 260 265 270 265 266 37 93 97 88 57 71 50 48 36 26 19 59 342 305 296 292
72 305 291 311 337 209 147 192 189 176 222 223 224 228 229 232 244 209 259 140 56 39 75 101 137 121 177 152 190 126 98 114 105 76 79 48 37 35 38 3 111 159 206 164 220 150 199 152 185 210 240 236 252 256 119 55 293 283 251 250 261 255 241 250 253 255 249 253 262 257 266 155 170 98 92 82 73 7 51 359 7 341 345 306 278 280 279 288